This is the latest recevied weather packets stored in our database for station/object KK6MIG-13. If no packets are shown the sender has not sent any weather packets the latest 1 day(s).
| Time | Temp. | Humidity | Pressure | Rain* | Wind** | Luminosity | Snow |
|---|---|---|---|---|---|---|---|
| 1778046060 | 13.89° C | 1% | 1016.7 hPa | 0 mm | 2.68 m/s, 276° | 0 W/m² | - |
| 1778046000 | 13.89° C | 1% | 1016.7 hPa | 0 mm | 2.68 m/s, 278° | 0 W/m² | - |
| 1778045940 | 13.89° C | 1% | 1016.7 hPa | 0 mm | 2.68 m/s, 281° | 0 W/m² | - |
| 1778045814 | 13.89° C | 1% | 1016.7 hPa | 0 mm | 2.68 m/s, 265° | 0 W/m² | - |
| 1778045754 | 13.89° C | 1% | 1016.7 hPa | 0 mm | 2.68 m/s, 265° | 0 W/m² | - |
| 1778045694 | 13.33° C | 1% | 1016.7 hPa | 0 mm | 3.13 m/s, 275° | 0 W/m² | - |
| 1778045637 | 13.33° C | 1% | 1016.7 hPa | 0 mm | 3.13 m/s, 296° | 0 W/m² | - |
| 1778045577 | 13.33° C | 1% | 1016.7 hPa | 0 mm | 3.58 m/s, 292° | 0 W/m² | - |
| 1778045573 | 13.33° C | 1% | 1016.6 hPa | 0 mm | 3.13 m/s, 284° | 0 W/m² | - |
| 1778045448 | 13.89° C | 1% | 1016.7 hPa | 0 mm | 3.58 m/s, 288° | 0 W/m² | - |
| 1778045388 | 13.89° C | 1% | 1016.7 hPa | 0 mm | 3.13 m/s, 286° | 0 W/m² | - |
| 1778045328 | 13.89° C | 1% | 1016.7 hPa | 0 mm | 3.13 m/s, 276° | 0 W/m² | - |
| 1778045262 | 13.89° C | 1% | 1016.7 hPa | 0 mm | 3.13 m/s, 288° | 0 W/m² | - |
| 1778045202 | 13.89° C | 1% | 1016.7 hPa | 0 mm | 2.68 m/s, 280° | 0 W/m² | - |
| 1778045143 | 13.89° C | 1% | 1016.7 hPa | 0 mm | 2.68 m/s, 271° | 0 W/m² | - |
| 1778045083 | 13.89° C | 1% | 1016.6 hPa | 0 mm | 2.24 m/s, 284° | 0 W/m² | - |
| 1778045022 | 13.89° C | 1% | 1016.7 hPa | 0 mm | 2.24 m/s, 280° | 0 W/m² | - |
| 1778044956 | 13.89° C | 1% | 1016.7 hPa | 0 mm | 2.24 m/s, 282° | 0 W/m² | - |
| 1778044896 | 13.89° C | 1% | 1016.7 hPa | 0 mm | 2.24 m/s, 273° | 0 W/m² | - |
| 1778044836 | 13.89° C | 1% | 1016.7 hPa | 0 mm | 2.24 m/s, 288° | 0 W/m² | - |
| 1778044776 | 13.89° C | 1% | 1016.7 hPa | 0 mm | 2.24 m/s, 319° | 0 W/m² | - |
| 1778044716 | 13.89° C | 1% | 1016.7 hPa | 0 mm | 2.24 m/s, 272° | 0 W/m² | - |
| 1778044653 | 13.89° C | 1% | 1016.7 hPa | 0 mm | 2.24 m/s, 294° | 0 W/m² | - |
| 1778044591 | 13.89° C | 1% | 1016.7 hPa | 0 mm | 2.68 m/s, 265° | 0 W/m² | - |
| 1778044530 | 13.89° C | 1% | 1016.7 hPa | 0 mm | 2.68 m/s, 302° | 0 W/m² | - |
* Rain latest hour (hover to see other rain measurements)
** Current wind speed in m/s (hover to see current wind gust speed)